Meerawa, Australia

5:53 AM AEST on December 19, 2017 (GMT +1000)
Meerawa

Weather History for 94287 - March, 2013

Change the Weather History Date:

Thursday, March 21, 2013

  Actual Average Record
Temperature  
Mean Temperature 80 °F -  
Max Temperature 87 °F 85 °F - ()
Min Temperature 74 °F 72 °F - ()
Cooling Degree Days 16    
Growing Degree Days 30 (Base 50)    
Moisture  
Dew Point 74 °F    
Average Humidity 81    
Maximum Humidity 100    
Minimum Humidity 59    
Precipitation  
Precipitation 0.24 in 0.38 in - ()
Sea Level Pressure  
Sea Level Pressure 29.83 in    
Wind  
Wind Speed 7 mph ()    
Max Wind Speed 14 mph    
Max Gust Speed -    
Visibility 6.5 miles    
Events Rain    
T = Trace of Precipitation, MM = Missing Value Source: Averaged Metar Reports

Daily Weather History Graph

Daily Weather History Graph

Search for Another Location

Airport or City:

Trip Planner

Search our weather history database for the weather conditions in past years. The results will help you decide how hot, cold, wet, or windy it might be!

Date:

Astronomy

Mar. 21, 2013 Rise Set
Actual Time 6:21 AM AEST 6:27 PM AEST
Civil Twilight 5:59 AM AEST 6:48 PM AEST
Nautical Twilight 5:34 AM AEST 7:13 PM AEST
Astronomical Twilight 5:09 AM AEST 7:39 PM AEST
Moon 1:53 PM AEST (3/21) 12:40 AM AEST (3/21)
Length of Visible Light 12h 49m
Length of Day
12h 06m
Waxing Gibbous, 63% of the Moon is Illuminated
Mar 21
Waxing Gibbous
Mar 27
Full
Apr 3
Last Quarter
Apr 10
New
Apr 18
First Quarter

Hourly Weather History & Observations

Time (AEST) Temp. Heat Index Dew Point Humidity Pressure Visibility Wind Dir Wind Speed Gust Speed Precip Events Conditions
12:00 AM 79 °F - 72 °F 74% 29.85 in - South 5.8 mph - -   Overcast
12:00 AM 78.8 °F - 71.6 °F 78% 29.83 in 6.2 mi South 5.8 mph - N/A   Mostly Cloudy
12:30 AM 78.8 °F - 71.6 °F 78% 29.83 in 6.2 mi South 9.2 mph - N/A   Mostly Cloudy
1:00 AM 78 °F - 72 °F 75% 29.83 in - South 11.5 mph - -  
1:00 AM 77.0 °F - 71.6 °F 83% 29.83 in 5.6 mi South 11.5 mph - N/A   Mostly Cloudy
1:30 AM 75.2 °F - 73.4 °F 94% 29.80 in 5.6 mi SSE 6.9 mph - N/A Rain Light Rain Showers
2:00 AM 75.2 °F - 73.4 °F 94% 29.77 in 6.2 mi SSE 6.9 mph - N/A   Scattered Clouds
2:30 AM 75.2 °F - 73.4 °F 94% 29.77 in 6.2 mi SSE 9.2 mph - N/A   Scattered Clouds
3:00 AM 76 °F - 72 °F 85% 29.79 in - South 5.8 mph - -   Overcast
3:00 AM 75.2 °F - 71.6 °F 89% 29.77 in 6.2 mi South 5.8 mph - N/A   Mostly Cloudy
3:30 AM 75.2 °F - 73.4 °F 94% 29.77 in 6.2 mi West 5.8 mph - N/A   Mostly Cloudy
4:00 AM 76 °F - 74 °F 91% 29.79 in - Calm Calm - -  
4:00 AM 75.2 °F - 73.4 °F 94% 29.77 in - Calm Calm - N/A   Overcast
4:30 AM 75.2 °F - 73.4 °F 94% 29.77 in 6.2 mi South 3.5 mph - N/A   Scattered Clouds
5:00 AM 75.2 °F - 73.4 °F 94% 29.77 in 6.2 mi SSE 1.2 mph - N/A   Mostly Cloudy
5:30 AM 75.2 °F - 73.4 °F 94% 29.80 in 6.2 mi Calm Calm - N/A   Scattered Clouds
6:00 AM 76 °F - 74 °F 90% 29.82 in 7 mi SSE 5.8 mph - -   Overcast
6:00 AM 75.2 °F - 73.4 °F 94% 29.80 in 6.2 mi SSE 5.8 mph - N/A   Mostly Cloudy
6:30 AM 77.0 °F - 73.4 °F 89% 29.83 in 6.2 mi SSE 8.1 mph - N/A   Mostly Cloudy
7:00 AM 76 °F - 74 °F 91% 29.84 in - SSE 9.2 mph - -  
7:00 AM 77.0 °F - 73.4 °F 89% 29.83 in 6.2 mi SSE 9.2 mph - N/A   Mostly Cloudy
7:30 AM 77.0 °F - 73.4 °F 89% 29.83 in 6.2 mi SSE 8.1 mph - N/A   Mostly Cloudy
8:00 AM 77.0 °F - 73.4 °F 89% 29.86 in 6.2 mi SSE 6.9 mph - N/A   Mostly Cloudy
8:30 AM 77.0 °F - 73.4 °F 89% 29.86 in 6.2 mi SSE 8.1 mph - N/A   Mostly Cloudy
9:00 AM 78.8 °F - 75.2 °F 89% 29.86 in 5.6 mi SSE 6.9 mph - N/A   Mostly Cloudy
9:30 AM 80.6 °F 86.2 °F 75.2 °F 84% 29.86 in 6.2 mi SSE 3.5 mph - N/A   Mostly Cloudy
10:00 AM 81 °F - 74 °F 74% 29.88 in - Calm Calm - -  
10:00 AM 80.6 °F 85.4 °F 73.4 °F 79% 29.86 in 6.2 mi Calm Calm - N/A   Mostly Cloudy
10:30 AM 84.2 °F 92.3 °F 75.2 °F 74% 29.86 in 6.2 mi West 3.5 mph - N/A   Mostly Cloudy
11:00 AM 82.4 °F 89.5 °F 75.2 °F 79% 29.86 in 6.2 mi East 4.6 mph - N/A   Mostly Cloudy
11:30 AM 84.2 °F 90.9 °F 73.4 °F 70% 29.86 in 6.2 mi SE 8.1 mph - N/A   Mostly Cloudy
12:00 PM 85 °F - 73 °F 61% 29.86 in 16 mi ENE 5.8 mph - -   Partly Cloudy
12:00 PM 86.0 °F 93.4 °F 73.4 °F 66% 29.86 in 6.2 mi ENE 5.8 mph - N/A   Mostly Cloudy
12:30 PM 86.0 °F 95.1 °F 75.2 °F 70% 29.83 in 6.2 mi ENE 8.1 mph - N/A   Mostly Cloudy
1:00 PM 85 °F - 74 °F 63% 29.84 in - ENE 9.2 mph - -  
1:00 PM 86.0 °F 93.4 °F 73.4 °F 66% 29.83 in 6.2 mi ENE 9.2 mph - N/A   Scattered Clouds
1:30 PM 86.0 °F 95.1 °F 75.2 °F 70% 29.80 in 6.2 mi ENE 10.4 mph - N/A   Scattered Clouds
2:00 PM 86.0 °F 95.1 °F 75.2 °F 70% 29.80 in 6.2 mi ENE 9.2 mph - N/A   Scattered Clouds
2:30 PM 86.0 °F 93.4 °F 73.4 °F 66% 29.80 in 6.2 mi ENE 10.4 mph - N/A   Scattered Clouds
3:00 PM 87 °F - 75 °F 59% 29.80 in 19 mi ENE 11.5 mph - -   Partly Cloudy
3:00 PM 87.8 °F 97.6 °F 75.2 °F 66% 29.80 in 6.2 mi ENE 11.5 mph - N/A   Partly Cloudy
3:30 PM 86.0 °F 93.4 °F 73.4 °F 66% 29.80 in 6.2 mi ENE 11.5 mph - N/A   Scattered Clouds
4:00 PM 87 °F - 75 °F 59% 29.80 in - ENE 10.4 mph - -  
4:00 PM 86.0 °F 95.1 °F 75.2 °F 70% 29.77 in 6.2 mi ENE 10.4 mph - N/A   Partly Cloudy
4:30 PM 86.0 °F 93.4 °F 73.4 °F 66% 29.80 in 6.2 mi East 12.7 mph - N/A   Scattered Clouds
5:00 PM 86.0 °F 93.4 °F 73.4 °F 66% 29.80 in 6.2 mi East 11.5 mph - N/A   Mostly Cloudy
5:30 PM 84.2 °F 90.9 °F 73.4 °F 70% 29.80 in 6.2 mi SE 13.8 mph - N/A   Mostly Cloudy
6:00 PM 83 °F - 71 °F 60% 29.82 in - ESE 10.4 mph - -   Overcast
6:00 PM 82.4 °F 87.2 °F 71.6 °F 70% 29.80 in 6.2 mi ESE 10.4 mph - N/A   Mostly Cloudy
6:30 PM 80.6 °F 85.4 °F 73.4 °F 79% 29.83 in 6.2 mi SSE 8.1 mph - N/A   Light Drizzle
7:00 PM 81 °F - 74 °F 72% 29.85 in - SSE 6.9 mph - -  
7:00 PM 80.6 °F 85.4 °F 73.4 °F 79% 29.83 in 6.2 mi SSE 6.9 mph - N/A   Mostly Cloudy
7:30 PM 80.6 °F 85.4 °F 73.4 °F 79% 29.86 in 6.2 mi South 8.1 mph - N/A   Mostly Cloudy
8:00 PM 78.8 °F - 75.2 °F 89% 29.86 in 6.2 mi South 8.1 mph - N/A   Mostly Cloudy
8:30 PM 78.8 °F - 75.2 °F 89% 29.89 in 3.7 mi South 6.9 mph - N/A Rain Light Rain Showers
9:00 PM 77 °F - 76 °F 96% 29.91 in 4 mi SSE 8.1 mph - - Rain Light Rain Showers
9:00 PM 77.0 °F - 77.0 °F 100% 29.89 in 3.7 mi SSE 8.1 mph - N/A Rain Light Rain Showers
9:25 PM 77.0 °F - 75.2 °F 94% 29.89 in 5.0 mi SSE 6.9 mph - N/A   Mostly Cloudy
9:30 PM 77.0 °F - 75.2 °F 94% 29.89 in 6.2 mi SSE 6.9 mph - N/A   Mostly Cloudy
10:00 PM 78 °F - 75 °F 88% 29.91 in - South 9.2 mph - -  
10:00 PM 78.8 °F - 75.2 °F 89% 29.89 in 6.2 mi South 9.2 mph - N/A   Scattered Clouds
10:30 PM 78.8 °F - 75.2 °F 89% 29.89 in 6.2 mi South 8.1 mph - N/A   Partly Cloudy
11:00 PM 78.8 °F - 73.4 °F 83% 29.89 in 6.2 mi South 8.1 mph - N/A   Partly Cloudy
11:30 PM 78.8 °F - 73.4 °F 83% 29.89 in 6.2 mi SSE 6.9 mph - N/A   Partly Cloudy